[[{"header":{"parameterUnit":"m.s-1","parameterCategory":1,"la1":30.2991,"la2":30.254,"lo1":-89.0895,"lo2":-89.0444,"dy":0.0017,"dx":0.0017,"nx":28,"ny":28,"refTime":"2024-03-12T21:00:00:Z","depth":0,"parameterNumber":2,"parameterNumberName":"U-component_of_WINDS"},"data":[0,0,0,0,0,0,0,0,0,0,0,0,0,0,0,0,0,0,0,0,0,0,0,0,0,0,0,0,0,0,0,0,0,0,0,0,0,0,0,0,0,0,0,0,0,0,0,0,0,0,0,0,0,0,0,0,0,0,-4.9905,-4.9906,0,-5.0035,-5.0037,-5.0038,-5.0032,-5.003,-5.0028,-5.0026,-5.0159,-5.0164,-5.0169,0,0,0,0,0,0,0,0,0,0,0,0,0,-4.9651,-4.9656,-4.9905,-4.9907,-4.9908,-5.0035,-5.0037,-5.0039,-5.0032,-5.003,-5.0028,-5.0026,-5.0157,-5.0163,-5.0169,0,0,0,0,0,0,0,0,0,0,0,0,0,-4.9769,-4.9657,-4.9905,-4.992,-4.9923,-5.0035,-5.0037,-5.0039,-5.0033,-5.003,-5.0027,-5.0025,-5.0155,-5.0162,-5.017,-5.0274,0,0,-5.0194,-5.0198,0,0,0,0,0,0,0,0,-4.9763,-4.9779,-4.9916,-4.9919,-4.9923,-5.0015,-4.9996,-5.0118,-5.0033,-4.9991,-5.0026,-5.0023,-5.0113,-5.0124,-5.0154,-5.028,-5.0286,-5.0195,-5.02,-5.0203,-5.0205,0,0,0,0,0,0,0,-4.9755,-4.9773,-4.9956,-4.9918,-4.9922,-4.9921,-4.9935,-5.0019,-5.0066,-4.9995,-4.9994,-5.001,-5.0114,-5.0147,-5.0157,-5.0288,-5.0195,-5.0202,-5.0206,-5.0209,-5.0507,-5.051,0,0,0,0,0,0,-4.9743,-4.9766,-4.9952,-4.996,-4.9834,-4.9928,-4.9943,-4.9988,-5.0065,-5.0074,-5.0012,-5.0009,-5.0135,-5.0148,-5.0162,-5.0288,-5.0203,-5.021,-5.0215,-5.0504,-5.0508,-5.0511,0,0,0,0,0,0,-4.9738,-4.976,-4.9947,-4.9863,-4.9887,-4.9935,-4.9985,-4.9992,-5.0025,-5.0078,-5.0087,-5.0037,-5.0133,-5.0151,-5.0247,-5.0293,-5.0214,-5.0221,-5.05,-5.0505,-5.051,-5.0542,0,0,0,0,0,0,-4.973,-4.9758,-4.9797,-4.9864,-4.9892,-5.0029,-4.9988,-4.9996,-5.0038,-5.0036,-5.0104,-5.0112,-5.0132,-5.0235,-5.0254,-5.0302,-5.0227,-5.0496,-5.0502,-5.0508,-5.0537,-5.0548,-5.0557,0,0,0,0,0,-4.9721,-4.9801,-4.9799,-4.9822,-4.9942,-5.0032,-5.0047,-5.0069,-5.0042,-5.0082,-5.0117,-5.011,-5.0286,-5.0245,-5.0267,-5.0318,-5.0493,-5.0501,-5.0508,-5.0533,-5.0546,-5.0556,0,0,0,0,0,0,-4.9736,-4.981,-4.9809,-4.9912,-4.9966,-5.0031,-5.0081,-5.0082,-5.0143,-5.0138,-5.0163,-5.0178,-5.0274,-5.0306,-5.0259,-5.0423,-5.0386,-5.0398,-5.0398,-5.041,-5.042,-5.0408,-5.0234,0,0,0,0,0,-4.9752,-4.9819,-4.9879,-4.9965,-4.9992,-5.0033,-5.0072,-5.0085,-5.0141,-5.0164,-5.0205,-5.026,-5.0328,-5.0371,-5.0437,-5.0544,-5.0558,-5.059,-5.0599,-5.0607,-5.0616,-5.0675,-5.0689,-5.0535,-5.0535,-5.0535,0,0,-4.9784,-4.9833,-4.9873,-4.9969,-5.0012,-5.0081,-5.0051,-5.0125,-5.0176,-5.0175,-5.0267,-5.03,-5.0363,-5.0465,-5.0512,-5.0495,-5.0663,-5.0616,-5.0622,-5.0627,-5.0684,-5.0698,-5.0711,-5.054,-5.0539,-5.0538,0,0,-4.9877,-4.9922,-4.9997,-5.0042,-5.0108,-5.0135,-5.0154,-5.022,-5.0242,-5.0335,-5.0336,-5.0398,-5.0514,-5.0559,-5.0597,-5.0712,-5.0707,-5.0733,-5.0781,-5.0839,-5.0851,-5.0861,-5.0901,-5.0915,-5.0742,-5.0742,-5.0742,0,-4.9908,-5.0012,-5.0036,-5.0111,-5.0153,-5.0158,-5.0235,-5.0277,-5.0361,-5.039,-5.037,-5.0517,-5.056,-5.0672,-5.07,-5.0732,-5.0753,-5.0722,-5.0847,-5.0858,-5.0869,-5.0907,-5.0922,-5.0744,-5.0744,-5.0744,-5.0744,0,-5.0046,-5.0119,-5.0172,-5.0254,-5.0303,-5.0379,-5.0415,-5.0462,-5.0472,-5.0501,-5.0597,-5.065,-5.0726,-5.0754,-5.0764,-5.0869,-5.0856,-5.0842,-5.0804,-5.0885,-5.0921,-5.0936,-5.0748,-5.0747,-5.0746,-5.0746,0,0,-5.0147,-5.0245,-5.0264,-5.0302,-5.0377,-5.0433,-5.0511,-5.0586,-5.0625,-5.0685,-5.0749,-5.0849,-5.0837,-5.088,-5.0896,-5.0947,-5.1033,-5.0926,-5.0928,-5.0942,-5.1151,-5.1159,-5.1175,-5.1033,-5.1035,-5.1038,-5.1145,0,-5.0247,-5.0382,-5.0408,-5.0526,-5.0593,-5.0601,-5.0668,-5.0721,-5.0752,-5.0814,-5.0848,-5.0918,-5.0897,-5.0924,-5.0975,-5.1011,-5.1075,-5.1005,-5.1091,-5.1094,-5.1071,-5.1194,-5.1202,-5.13,-5.1159,-5.1162,-5.1164,0,-5.0379,-5.0442,-5.0567,-5.0635,-5.0664,-5.0724,-5.0796,-5.0855,-5.0917,-5.0936,-5.0986,-5.0997,-5.1078,-5.104,-5.1151,-5.1103,-5.1141,-5.1165,-5.117,-5.1175,-5.1131,-5.1201,-5.1332,-5.1346,-5.1186,-5.1184,-5.1183,0,-5.0438,-5.0555,-5.0645,-5.0677,-5.0759,-5.0801,-5.0837,-5.0897,-5.0941,-5.1005,-5.1034,-5.1106,-5.1145,-5.1201,-5.1231,-5.1201,-5.134,-5.1305,-5.1357,-5.1356,-5.1382,-5.138,-5.1519,-5.1413,-5.1412,-5.1412,-5.1412,0,-5.0543,-5.0619,-5.0672,-5.0727,-5.0812,-5.0844,-5.0927,-5.0963,-5.1017,-5.1079,-5.1091,-5.1149,-5.1187,-5.1251,-5.1276,-5.1364,-5.1382,-5.1399,-5.1404,-5.1396,-5.1393,-5.1418,-5.1411,-5.1416,-5.1415,-5.1414,-5.1414,0,-5.0621,-5.066,-5.0758,-5.083,-5.085,-5.0909,-5.097,-5.1024,-5.1057,-5.1135,-5.1156,-5.1207,-5.1283,-5.132,-5.1414,-5.1431,-5.153,-5.1532,-5.1509,-5.151,-5.1559,-5.1553,-5.1716,-5.1739,-5.162,-5.1621,-5.1622,0,-5.0684,-5.0742,-5.0821,-5.0864,-5.0901,-5.097,-5.1016,-5.105,-5.1098,-5.1175,-5.1219,-5.1297,-5.1359,-5.1481,-5.1526,-5.1599,-5.1601,-5.1654,-5.1612,-5.1602,-5.1599,-5.1594,-5.16,-5.166,-5.1661,-5.1662,-5.1663,0,-5.0791,-5.0808,-5.0874,-5.0948,-5.1002,-5.1062,-5.112,-5.1155,-5.1199,-5.1252,-5.133,-5.1379,-5.1477,-5.1553,-5.163,-5.1667,-5.1672,-5.1677,-5.1692,-5.1682,-5.1665,-5.1673,-5.1526,-5.1671,-5.167,-5.167,-5.1669,-5.1669,-5.0861,-5.0914,-5.0977,-5.1051,-5.1099,-5.1154,-5.1209,-5.125,-5.1316,-5.1398,-5.1415,-5.1498,-5.1561,-5.1665,-5.1706,-5.1771,-5.1759,-5.1782,-5.1787,-5.1792,-5.1793,-5.1658,-5.1786,-5.1786,-5.1786,-5.1785,-5.1785,0,-5.0966,-5.1009,-5.1077,-5.1159,-5.1217,-5.122,-5.1285,-5.1333,-5.1407,-5.1466,-5.1528,-5.1619,-5.1694,-5.1747,-5.1824,-5.1866,-5.187,-5.1885,-5.188,-5.1888,-5.18,-5.1778,-5.188,-5.188,-5.188,-5.188,-5.188,-5.188,-5.1028,-5.1117,-5.1142,-5.1256,-5.1298,-5.138,-5.1417,-5.1469,-5.1516,-5.1617,-5.168,-5.1714,-5.1771,-5.1853,-5.1922,-5.1936,-5.1962,-5.1976,-5.1989,-5.1905,-5.1895,-5.1885,-5.1864,-5.1982,-5.1982,-5.2071,-5.2072,-5.2073]},{"header":{"parameterUnit":"m.s-1","parameterCategory":1,"la1":30.2991,"la2":30.254,"lo1":-89.0895,"lo2":-89.0444,"dy":0.0017,"dx":0.0017,"nx":28,"ny":28,"refTime":"2024-03-12T21:00:00:Z","depth":0,"parameterNumber":3,"parameterNumberName":"V-component_of_WINDS"},"data":[0,0,0,0,0,0,0,0,0,0,0,0,0,0,0,0,0,0,0,0,0,0,0,0,0,0,0,0,0,0,0,0,0,0,0,0,0,0,0,0,0,0,0,0,0,0,0,0,0,0,0,0,0,0,0,0,0,0,1.9155,1.9155,0,1.9214,1.9215,1.9215,1.9263,1.9263,1.9264,1.9264,1.9321,1.9322,1.9323,0,0,0,0,0,0,0,0,0,0,0,0,0,1.908,1.9081,1.9154,1.9155,1.9156,1.9214,1.9215,1.9216,1.9263,1.9263,1.9264,1.9265,1.9321,1.9322,1.9323,0,0,0,0,0,0,0,0,0,0,0,0,0,1.9123,1.9082,1.9154,1.9187,1.919,1.9214,1.9215,1.9216,1.9263,1.9263,1.9264,1.9265,1.932,1.9322,1.9324,1.9319,0,0,1.9328,1.9329,0,0,0,0,0,0,0,0,1.9121,1.9126,1.9181,1.9184,1.9188,1.9232,1.921,1.925,1.9263,1.9235,1.9264,1.9265,1.9291,1.9295,1.9304,1.9321,1.9324,1.9329,1.9329,1.933,1.9331,0,0,0,0,0,0,0,1.9118,1.9124,1.9178,1.9182,1.9186,1.9198,1.9205,1.9217,1.9258,1.9237,1.9241,1.9248,1.9293,1.9302,1.9306,1.9325,1.9328,1.933,1.9331,1.9331,1.9344,1.9343,0,0,0,0,0,0,1.911,1.9121,1.9176,1.918,1.9156,1.9198,1.9206,1.9217,1.9258,1.9265,1.9247,1.925,1.9299,1.9304,1.9308,1.9307,1.933,1.9332,1.9333,1.9345,1.9344,1.9343,0,0,0,0,0,0,1.9108,1.9115,1.9174,1.9151,1.916,1.9199,1.9211,1.9218,1.9228,1.9265,1.9272,1.925,1.93,1.9306,1.9317,1.931,1.9332,1.9334,1.9345,1.9344,1.9343,1.9304,0,0,0,0,0,0,1.9106,1.9114,1.9112,1.9151,1.9161,1.9182,1.921,1.9219,1.9231,1.9235,1.927,1.9276,1.9301,1.9314,1.9318,1.9312,1.9335,1.9346,1.9345,1.9344,1.9306,1.9301,1.9298,0,0,0,0,0,1.9103,1.9097,1.9112,1.9118,1.916,1.9181,1.9187,1.9217,1.923,1.9229,1.9254,1.9275,1.931,1.9315,1.932,1.9314,1.9347,1.9345,1.9344,1.9308,1.9302,1.9298,0,0,0,0,0,0,1.9054,1.9103,1.912,1.9126,1.9149,1.9189,1.9188,1.921,1.9229,1.9232,1.9267,1.9275,1.9282,1.9299,1.9304,1.9313,1.9331,1.9331,1.9302,1.9297,1.9293,1.9289,1.9336,0,0,0,0,0,1.9044,1.9058,1.91,1.9101,1.9112,1.9148,1.9159,1.9181,1.9205,1.9215,1.924,1.9263,1.9279,1.9289,1.9306,1.9309,1.9318,1.9308,1.9304,1.93,1.9299,1.9304,1.9301,1.9339,1.9339,1.9339,0,0,1.9024,1.9052,1.9058,1.9092,1.9113,1.9126,1.9156,1.9168,1.9179,1.9216,1.9229,1.9249,1.9276,1.9284,1.9288,1.9298,1.9291,1.9298,1.9295,1.9296,1.9303,1.9299,1.9296,1.9338,1.9338,1.9338,0,0,1.8993,1.9015,1.9021,1.9042,1.9074,1.9098,1.91,1.9137,1.9152,1.9166,1.9196,1.9208,1.9235,1.9254,1.9268,1.9249,1.9269,1.9253,1.9232,1.9237,1.9234,1.9231,1.9226,1.9223,1.9252,1.9252,1.9252,0,1.8963,1.8986,1.902,1.9032,1.9047,1.9084,1.909,1.9108,1.9143,1.9153,1.9164,1.9201,1.9221,1.9235,1.9231,1.924,1.9243,1.9249,1.9231,1.9229,1.9228,1.9223,1.9221,1.925,1.925,1.925,1.925,0,1.8948,1.8963,1.8964,1.8999,1.9014,1.9023,1.9059,1.907,1.9091,1.9114,1.9129,1.9156,1.9181,1.9186,1.9205,1.9203,1.9209,1.9225,1.9244,1.9221,1.9218,1.9216,1.9247,1.9248,1.9248,1.9249,0,0,1.8886,1.8944,1.8943,1.8962,1.9001,1.9013,1.9024,1.905,1.906,1.9083,1.9094,1.9117,1.9134,1.9149,1.9172,1.9175,1.9161,1.9192,1.9193,1.9186,1.9162,1.915,1.9148,1.9175,1.9175,1.9175,1.9161,0,1.8863,1.8886,1.892,1.8932,1.8947,1.8984,1.8994,1.9019,1.9042,1.9059,1.9083,1.91,1.912,1.913,1.9136,1.9161,1.9157,1.9163,1.9186,1.9186,1.9178,1.9145,1.9132,1.9117,1.9159,1.9159,1.9159,0,1.8838,1.8863,1.8877,1.8919,1.8926,1.8935,1.8963,1.8978,1.9008,1.9024,1.9043,1.9068,1.9082,1.91,1.912,1.9123,1.9135,1.9149,1.9149,1.9153,1.9171,1.9149,1.9113,1.9111,1.9156,1.9157,1.9157,0,1.8794,1.883,1.8845,1.8859,1.8906,1.8912,1.8932,1.8963,1.8977,1.9002,1.9012,1.9036,1.905,1.9068,1.91,1.9109,1.9117,1.9136,1.9132,1.9131,1.9131,1.9131,1.9097,1.9137,1.9137,1.9137,1.9137,0,1.8765,1.8773,1.8826,1.8834,1.8845,1.8883,1.8892,1.8915,1.8943,1.8957,1.899,1.9002,1.9043,1.906,1.9084,1.9098,1.9104,1.9118,1.9124,1.9115,1.9114,1.9123,1.9125,1.9137,1.9137,1.9137,1.9137,0,1.8717,1.8753,1.8771,1.8816,1.8828,1.8834,1.8872,1.8882,1.8908,1.8925,1.8932,1.8972,1.8994,1.9028,1.9059,1.9076,1.9086,1.9096,1.9076,1.9081,1.9074,1.9075,1.9046,1.9045,1.9085,1.9084,1.9084,0,1.8696,1.8704,1.8751,1.8764,1.8783,1.8803,1.8819,1.8857,1.8872,1.8909,1.8915,1.894,1.8962,1.8996,1.9027,1.9052,1.9064,1.9052,1.9067,1.9059,1.9065,1.9065,1.9066,1.9048,1.9048,1.9047,1.9047,0,1.8657,1.8675,1.8697,1.8727,1.8746,1.877,1.8796,1.8804,1.8849,1.8864,1.8888,1.8906,1.894,1.8965,1.8994,1.9014,1.9038,1.9042,1.9043,1.9034,1.9022,1.903,1.9068,1.9042,1.9043,1.9043,1.9043,1.9044,1.8623,1.8632,1.8668,1.8692,1.8717,1.8741,1.8754,1.8783,1.8804,1.8836,1.8857,1.8881,1.8913,1.8956,1.8975,1.8994,1.9004,1.9004,1.9004,1.9004,1.9001,1.9019,1.8999,1.8999,1.8999,1.8999,1.8999,0,1.8586,1.8612,1.8634,1.8671,1.8691,1.8714,1.8745,1.8759,1.878,1.8809,1.8831,1.886,1.8885,1.892,1.8948,1.8956,1.8968,1.8962,1.8962,1.8967,1.899,1.8987,1.8952,1.8952,1.8952,1.8952,1.8952,1.8952,1.8569,1.8588,1.861,1.8641,1.8666,1.8691,1.8707,1.873,1.8754,1.8785,1.8807,1.8831,1.8862,1.8893,1.8917,1.8927,1.8936,1.8927,1.894,1.896,1.8965,1.8969,1.8967,1.8928,1.8928,1.8915,1.8915,1.8915]}]]